Theta_e
358 358 359 358 358 357 356 356 357 356 355 355 354 353 353 354 355 356 356 357 355 353 352 353 354 353 352 351 350 350 352 352 349 350 353 352 353 358 358 356 355 355 355 356 357 357 357 357 358 358 358 358 356 354 354 353 353 352 350 347 343 340 339 335 332 330 332 334 337 339 340 341 341 342
357 357 358 358 358 358 356 357 357 356 356 356 355 354 353 352 355 357 356 357 357 355 354 354 354 354 353 352 353 354 352 349 348 351 351 351 354 358 356 353 354 356 357 357 358 358 357 358 358 357 356 355 354 353 353 352 351 349 345 342 339 337 334 329 327 327 329 332 335 337 337 338 339 340
356 356 357 357 358 357 356 356 357 357 357 357 357 355 354 353 354 357 357 358 357 357 356 355 356 355 354 352 353 356 354 347 346 350 350 348 352 358 356 353 357 358 358 358 357 357 357 357 356 356 354 353 352 352 351 349 347 344 341 338 335 331 328 325 324 325 326 328 331 334 336 337 338 339
355 355 356 357 358 357 357 357 357 357 357 357 356 356 355 355 354 355 357 358 359 359 357 354 355 355 354 353 352 353 354 351 347 350 350 347 352 359 358 357 358 359 357 357 357 356 356 355 354 353 352 351 351 349 348 346 343 340 337 334 330 326 324 322 322 322 322 323 325 328 332 335 337 339
356 355 356 357 356 354 355 358 357 357 356 356 357 357 356 356 356 355 358 359 358 359 359 356 356 354 352 354 355 353 354 353 350 351 351 350 353 356 357 359 359 358 358 356 355 355 355 354 352 351 349 349 348 348 346 343 339 337 333 329 325 323 321 320 320 321 320 321 322 323 325 329 334 338
356 355 355 356 356 353 352 354 355 356 356 356 356 358 358 358 358 357 356 358 359 358 359 359 358 357 355 356 356 354 352 351 350 350 352 354 354 354 356 360 359 358 358 356 355 354 353 351 350 349 348 348 347 346 344 340 336 334 330 326 323 321 319 320 320 320 320 320 321 322 323 326 331 336
356 355 355 356 357 355 352 351 353 354 355 355 356 357 357 357 358 357 355 356 359 359 359 359 359 358 358 358 356 353 350 351 352 351 352 354 353 354 358 360 359 359 358 356 355 354 352 350 349 348 348 347 347 345 341 337 334 332 328 323 321 319 319 320 320 320 320 320 321 321 323 324 329 336
355 355 355 356 357 355 354 352 353 353 353 354 356 357 357 356 357 358 357 356 358 359 359 360 360 358 357 356 354 351 351 354 354 351 351 352 351 353 357 359 360 359 359 357 357 354 352 350 348 348 348 348 346 344 339 335 333 331 326 322 319 319 319 319 320 320 320 320 320 321 322 324 328 334
350 352 353 354 355 355 354 354 356 355 352 353 355 356 358 358 357 357 356 356 357 359 359 359 360 359 357 356 354 351 351 356 357 354 352 351 351 352 355 358 359 359 359 358 357 355 353 350 349 349 349 349 347 343 338 334 333 330 325 321 319 319 319 319 320 320 320 321 320 321 322 323 326 332
344 345 347 348 351 353 355 355 357 356 353 352 353 354 356 357 357 356 356 357 358 358 360 359 359 359 359 358 357 354 351 354 357 358 356 355 353 352 355 357 358 359 360 358 356 354 352 351 349 349 349 349 347 343 338 334 332 329 324 321 319 319 320 319 319 320 320 321 321 321 321 322 323 329
343 344 345 347 348 349 350 353 355 356 355 354 353 352 353 356 357 357 358 358 358 359 360 360 359 360 360 360 358 354 351 352 357 360 359 359 357 354 354 356 358 360 360 358 356 354 352 351 350 350 349 348 345 343 339 334 332 329 324 320 319 319 319 319 319 320 320 321 322 322 322 323 322 326
343 343 344 347 349 348 347 348 351 353 355 355 355 352 351 352 354 357 358 358 360 359 359 359 359 359 360 360 359 357 355 359 361 360 358 359 359 357 356 356 357 359 360 358 357 354 352 350 350 350 348 347 345 343 339 335 331 328 324 320 319 319 319 319 319 320 321 322 322 323 323 324 323 324
343 341 343 345 346 344 343 343 346 349 351 353 355 355 353 350 352 356 358 359 359 359 359 359 360 360 360 361 361 361 360 361 360 359 358 359 359 358 359 359 357 358 359 359 357 357 354 350 349 348 347 346 345 343 338 334 331 328 324 320 318 318 319 318 318 319 320 321 323 323 324 325 325 325
345 344 344 344 341 339 338 340 343 345 348 349 351 353 354 352 353 357 359 359 359 359 359 358 359 359 359 359 360 361 361 359 359 359 360 360 359 359 361 361 360 359 359 359 359 358 356 352 350 348 345 345 345 342 337 334 331 328 323 320 318 318 318 318 318 319 320 321 323 323 325 327 326 326
344 346 346 347 345 342 338 337 338 340 344 347 348 349 351 352 353 356 359 359 360 360 359 359 359 359 358 359 359 359 359 359 359 360 359 359 359 360 361 361 361 360 359 359 360 359 357 355 351 348 346 345 344 341 337 333 331 327 322 319 318 318 318 318 318 318 319 320 322 324 326 328 327 326
342 345 348 350 351 348 342 339 341 340 340 343 347 348 349 350 351 352 354 356 358 360 360 359 359 359 359 359 360 358 357 358 359 360 359 359 358 360 360 360 361 361 359 357 359 359 358 356 353 350 348 345 343 341 337 333 330 326 321 319 318 317 317 317 318 319 319 320 322 324 327 329 328 327
342 343 345 348 350 348 344 343 344 345 343 343 346 348 349 351 351 351 351 352 353 356 360 361 360 360 360 359 359 356 354 356 359 359 359 359 359 360 360 360 361 361 358 358 360 359 357 356 353 350 348 346 342 340 336 332 329 325 321 318 317 317 317 317 318 319 319 320 322 324 327 329 329 329
343 342 342 345 346 346 345 344 343 344 346 347 349 350 350 351 351 350 351 351 351 352 355 358 359 359 359 357 354 353 352 354 357 358 360 360 360 361 361 359 358 358 356 357 359 359 358 356 353 350 349 347 342 339 336 332 329 325 321 318 317 316 316 317 318 319 319 319 321 324 326 328 328 329
342 341 341 343 344 344 344 344 342 344 348 351 354 354 353 353 353 352 352 351 351 351 351 352 354 355 355 354 352 353 355 355 355 356 356 357 358 359 358 358 358 357 356 357 357 359 358 356 354 352 349 346 342 339 336 332 329 325 320 318 317 316 316 317 317 318 319 318 320 323 326 328 329 330
341 340 341 343 344 343 342 341 341 342 347 353 357 358 357 357 357 356 354 352 351 351 351 351 352 353 353 353 352 352 355 356 356 355 355 355 356 357 357 358 359 358 359 358 357 359 358 356 355 353 349 345 342 338 335 332 329 325 319 317 316 316 316 317 317 318 318 318 319 320 324 327 329 331
341 340 340 341 343 343 342 339 340 341 345 351 356 358 358 358 358 358 357 354 351 351 351 351 351 351 351 350 351 351 351 353 354 355 356 357 357 357 358 360 358 356 359 358 356 358 358 356 355 352 348 345 342 338 335 333 330 324 318 316 316 315 316 316 316 317 318 318 318 319 321 325 328 330
342 340 340 341 342 343 341 339 340 343 345 349 353 357 358 358 358 358 357 356 355 352 351 351 351 351 351 351 351 351 352 352 352 353 355 357 357 357 358 358 358 357 357 357 356 357 357 355 353 351 347 344 340 338 336 334 329 323 318 316 315 315 315 316 315 316 317 318 318 318 319 322 325 328
344 342 340 341 341 341 340 340 341 344 347 349 352 356 358 358 358 359 358 358 358 357 355 353 352 351 351 351 351 352 352 353 353 353 353 355 357 358 358 357 357 357 356 357 357 358 357 356 353 350 350 348 342 336 335 334 328 321 317 316 315 315 315 315 315 315 316 316 317 317 318 319 321 324
347 346 343 342 341 340 340 341 342 344 347 349 351 354 357 359 357 358 358 357 357 358 358 357 355 354 354 353 355 354 354 354 354 353 354 355 356 358 358 357 357 356 356 357 358 357 357 356 353 350 349 348 343 337 335 334 328 320 316 316 315 314 315 314 315 315 315 315 316 316 317 317 318 320
348 349 347 345 342 341 341 341 342 344 347 349 350 353 355 355 355 354 356 357 358 357 358 358 357 357 357 357 357 357 356 356 356 355 355 355 355 358 358 357 357 357 356 357 357 358 358 355 353 350 345 342 340 337 335 334 328 320 316 316 315 315 315 315 315 314 314 315 315 316 316 316 317 318
348 349 348 346 344 343 343 342 343 345 347 348 350 351 352 352 352 352 354 355 357 358 358 358 358 359 359 358 359 359 359 359 358 357 357 356 355 357 358 357 358 357 356 357 357 358 357 355 353 350 344 340 339 336 334 334 328 320 316 316 315 315 315 315 316 315 314 314 315 315 315 315 315 316
349 349 349 347 346 344 344 344 345 345 347 349 350 351 351 351 352 352 353 353 355 357 357 357 358 358 359 360 360 360 360 360 360 359 358 357 356 356 357 357 358 358 357 358 357 357 357 356 354 351 345 341 338 336 334 332 328 323 322 319 316 316 316 315 316 316 315 314 314 315 316 315 315 315
350 350 350 348 346 346 345 345 346 347 348 349 350 351 352 352 352 353 353 353 355 356 357 357 357 357 358 360 360 360 360 359 359 359 358 357 357 357 357 358 357 357 358 358 357 357 355 354 354 351 345 338 335 335 334 331 327 326 325 322 319 317 316 316 316 315 315 314 314 315 315 315 314 314
350 351 350 349 348 347 347 347 348 349 349 350 351 351 352 352 353 353 352 353 354 355 356 357 357 357 358 359 358 357 357 357 359 359 359 359 358 357 358 358 358 357 357 356 356 356 355 355 354 349 342 335 333 335 334 330 327 326 324 324 324 321 316 316 316 316 315 315 315 314 314 314 313 314
349 349 350 349 349 348 348 348 349 349 349 350 351 352 352 353 352 352 352 353 354 356 356 357 357 357 358 359 358 358 359 360 360 360 359 359 358 357 357 358 356 355 355 355 356 355 355 354 350 345 339 331 329 332 332 329 328 327 323 323 326 323 319 317 317 316 315 315 315 314 314 314 313 313
348 348 348 349 349 349 350 350 350 350 351 351 352 352 353 353 353 353 353 353 354 356 357 358 358 359 359 360 360 360 360 360 360 360 358 358 357 356 356 356 355 353 353 354 355 353 351 348 344 340 337 330 327 329 330 327 328 328 325 323 325 325 323 319 318 317 315 316 317 316 314 315 315 313
349 348 348 349 349 349 350 351 351 351 351 351 352 352 353 353 354 353 353 353 354 355 357 358 358 359 359 360 360 360 360 360 359 358 357 357 356 355 355 355 353 351 351 353 352 349 345 343 339 336 333 330 327 326 325 325 327 329 328 325 324 324 324 322 321 319 315 316 321 320 315 314 315 313
348 348 349 350 351 351 351 352 353 352 353 353 353 353 353 353 353 354 353 353 354 355 357 357 358 359 359 360 360 359 359 358 357 357 356 356 355 354 354 353 352 351 351 350 348 344 341 338 335 333 331 329 326 325 324 325 327 327 327 327 326 325 325 322 321 319 316 316 322 323 320 316 315 313
346 347 350 352 353 353 353 354 355 355 355 355 355 355 354 353 354 354 354 354 355 356 356 357 358 358 359 359 359 359 358 358 356 356 356 355 355 354 353 351 351 351 351 349 346 342 338 334 331 331 330 327 324 323 323 326 328 328 327 327 327 327 326 323 319 319 318 316 319 324 325 322 318 314
345 348 351 352 353 354 355 355 356 356 356 357 357 357 356 356 355 355 355 355 356 355 356 356 357 358 358 358 358 357 357 357 357 355 355 354 354 354 353 351 351 352 350 348 346 341 336 332 331 330 329 327 327 326 324 323 327 330 329 328 326 326 326 324 320 319 320 318 317 321 326 327 323 318
346 349 352 354 354 354 355 356 355 356 357 358 358 358 358 358 357 356 355 356 355 355 356 356 357 357 357 357 357 357 357 357 357 355 354 353 353 353 352 352 352 352 350 347 344 339 335 333 332 331 331 330 330 330 327 323 323 326 329 329 327 325 324 323 321 320 321 321 319 320 323 325 325 321
349 351 352 353 355 355 356 356 356 356 357 358 359 358 358 359 358 357 355 355 355 356 356 356 356 356 356 356 356 356 356 356 355 355 354 353 353 353 352 351 351 351 350 347 344 339 336 334 333 333 333 332 329 330 332 328 322 321 325 329 329 326 322 321 322 323 324 322 320 321 322 322 322 320
351 353 353 354 355 356 356 356 356 357 357 357 358 359 358 358 358 357 357 357 356 355 355 356 355 355 355 355 355 356 356 355 355 355 354 353 353 352 352 350 349 349 348 345 342 338 336 335 335 334 335 335 332 331 332 331 327 323 322 324 328 328 324 322 324 327 327 325 322 321 321 320 321 319
350 353 354 354 355 355 356 356 356 357 357 357 358 358 358 358 358 358 358 358 357 356 354 354 355 355 355 355 355 355 355 355 355 354 353 352 352 351 351 349 348 348 345 342 340 337 335 334 335 335 335 336 335 332 332 332 331 328 324 321 325 327 325 324 326 328 329 327 325 323 321 321 321 320
349 352 354 355 356 356 356 356 356 357 357 357 357 357 357 357 358 358 359 357 356 356 355 354 354 354 354 354 354 354 355 354 354 354 353 352 351 350 349 348 347 347 346 343 340 338 335 335 337 336 335 334 334 332 332 331 330 328 325 323 323 324 324 324 324 327 328 327 325 324 325 326 326 325
350 351 352 354 356 356 356 355 356 357 357 357 356 356 356 356 357 358 358 357 356 355 355 355 355 354 354 354 354 353 354 353 353 353 352 351 350 349 348 347 347 347 346 344 341 339 337 339 340 338 333 332 332 331 330 331 330 328 327 327 324 323 323 324 323 324 326 326 324 324 327 327 327 326
352 353 353 353 355 356 356 355 356 356 357 357 356 355 355 356 356 356 356 356 356 355 355 355 355 354 354 354 354 353 353 353 352 352 351 350 349 348 346 345 346 347 346 344 342 340 339 338 338 335 331 330 330 331 332 332 331 330 330 331 329 326 325 325 324 324 324 324 323 325 327 328 327 326
354 353 353 353 353 354 355 355 355 355 357 357 357 356 356 357 358 357 356 356 356 355 354 354 354 354 353 353 353 352 352 352 352 351 351 350 348 347 346 345 346 346 346 344 342 339 337 337 336 333 330 329 329 330 331 332 332 331 332 333 332 330 327 326 326 325 324 323 323 324 325 326 327 327
356 354 353 353 353 354 354 354 354 355 354 355 356 355 356 358 359 358 358 357 357 356 354 353 353 353 352 352 351 351 351 351 351 350 350 349 347 347 346 345 344 344 343 341 338 336 334 334 333 332 331 329 329 329 331 332 332 332 332 333 333 332 330 328 327 326 325 324 324 323 323 323 324 324
357 355 354 354 354 353 353 352 352 353 353 353 354 355 355 357 357 356 356 357 357 356 354 351 351 351 351 349 350 350 350 349 349 349 348 348 347 345 345 343 342 340 338 336 335 334 333 333 332 331 331 331 330 330 330 331 331 332 333 333 333 332 330 328 327 326 326 325 325 324 324 324 323 323
Wind_Speed
5 4 4 3 4 4 4 5 4 4 5 6 5 3 3 2 3 4 4 5 3 3 5 5 6 13 15 13 13 15 15 15 16 18 17 16 14 12 10 11 11 10 10 10 11 11 13 14 14 15 15 14 14 14 14 15 15 16 17 18 20 22 24 24 23 23 23 23 23 24 23 22 20 18
6 6 5 5 4 4 5 5 5 5 5 5 4 3 3 3 3 3 4 4 4 4 7 6 7 12 15 14 13 14 15 16 17 18 18 16 12 9 11 13 12 10 10 11 12 13 14 15 15 14 14 13 13 13 14 15 16 17 19 21 23 24 23 23 22 22 22 22 22 23 22 22 21 20
7 7 7 7 6 5 5 5 5 6 6 5 4 4 4 3 3 4 4 4 5 5 8 8 7 10 14 15 14 13 14 16 17 18 18 15 10 8 12 14 10 8 10 12 13 14 15 15 14 12 12 12 12 13 14 16 17 19 21 23 23 23 23 21 20 21 21 22 22 22 21 21 20 19
9 9 8 8 8 8 8 7 6 7 7 7 6 5 5 4 4 4 4 6 8 8 9 10 8 9 12 14 15 15 14 15 18 18 17 15 10 8 10 11 8 8 11 13 14 14 13 12 11 10 11 12 13 14 16 17 20 21 23 23 23 22 21 20 20 20 21 22 23 22 21 20 19 18
11 11 11 10 11 12 11 9 8 8 8 7 7 7 7 6 6 5 5 7 10 10 9 9 10 10 12 11 12 15 14 14 17 17 16 14 9 8 8 7 7 10 12 14 14 13 11 10 10 10 12 13 15 16 18 19 21 22 22 22 22 21 20 19 19 20 21 22 23 23 22 20 18 17
13 13 13 13 12 13 13 12 11 9 8 8 8 8 8 8 8 8 7 7 9 11 9 9 9 9 11 10 11 14 14 14 16 17 15 12 8 7 7 6 7 9 12 14 14 11 9 9 10 12 13 15 17 18 19 21 21 21 21 22 21 20 19 19 19 20 21 22 22 23 22 20 18 16
14 14 15 14 12 12 13 13 12 11 10 9 9 9 9 9 8 8 9 8 9 11 11 10 9 8 9 11 12 15 14 13 14 15 14 12 8 7 6 5 5 8 11 14 13 11 9 9 11 13 14 16 18 19 20 21 21 21 21 22 21 20 19 19 20 20 21 21 21 22 21 20 18 15
15 16 16 15 13 13 14 14 13 12 12 11 11 10 10 10 9 9 10 10 10 10 12 11 10 11 13 13 14 15 13 11 12 13 14 12 9 7 6 4 4 7 10 12 12 10 9 9 11 12 14 17 18 19 20 20 20 20 21 21 21 20 20 20 21 21 21 21 21 21 21 19 17 15
17 18 18 16 15 15 15 14 13 13 13 12 11 11 10 10 10 10 11 11 11 11 12 12 12 13 13 13 14 14 12 11 10 10 12 12 10 8 6 4 4 7 9 10 10 9 8 9 10 12 15 17 18 19 20 20 20 20 21 22 21 21 21 21 22 22 22 22 21 20 20 19 17 15
20 20 20 19 18 17 16 15 13 13 14 14 13 13 12 10 10 10 11 11 11 11 12 13 13 12 11 11 11 12 12 12 9 7 8 9 9 9 7 3 2 4 6 7 7 8 7 8 10 12 15 16 17 19 19 20 20 20 22 22 21 21 21 22 23 23 22 22 21 21 20 19 17 15
21 21 21 20 19 19 19 18 16 14 14 14 14 14 14 12 11 11 10 10 10 11 11 12 12 11 10 9 10 11 13 12 8 5 6 5 6 8 8 5 2 2 4 6 7 7 7 8 10 12 14 16 17 19 19 19 19 21 22 23 22 22 22 23 23 23 22 21 21 21 20 19 17 15
23 23 22 21 21 21 21 20 18 17 15 15 15 15 15 14 13 12 10 10 10 10 11 11 11 10 10 10 10 10 10 8 6 6 7 6 5 6 7 5 3 2 4 5 6 7 8 9 11 13 14 15 17 18 19 19 20 21 22 23 23 22 22 23 23 23 22 21 21 21 21 20 18 15
25 25 24 23 23 24 23 21 20 19 18 17 16 16 16 16 15 13 12 11 11 10 11 11 10 10 10 9 8 8 7 7 8 9 8 7 6 6 6 5 3 3 4 5 7 8 7 8 11 13 13 14 17 18 19 19 20 21 23 23 23 23 22 23 23 23 22 21 21 22 22 20 18 15
27 26 26 26 26 26 25 23 22 21 20 19 19 18 18 17 16 14 13 12 12 12 11 11 11 10 10 9 8 8 8 9 9 8 7 7 7 7 6 5 4 4 4 6 8 10 9 9 10 12 12 13 15 16 17 18 19 20 22 23 22 22 23 23 23 23 22 21 21 22 23 20 17 15
29 27 26 26 26 27 28 26 25 23 22 21 21 20 20 20 18 16 14 14 13 13 13 13 11 11 12 11 10 10 10 9 9 8 7 7 7 7 6 6 6 6 6 8 9 11 11 10 10 11 11 12 13 14 15 17 18 19 21 22 22 22 22 23 23 22 22 21 20 22 23 19 16 14
30 28 26 24 23 25 28 28 25 24 23 22 22 21 21 21 21 20 19 17 16 14 14 14 13 13 13 12 11 11 10 10 9 8 8 8 8 8 7 7 7 7 8 10 10 11 13 12 11 10 12 12 12 13 15 15 16 19 20 21 21 22 22 22 22 22 22 21 20 21 22 19 15 14
31 31 29 26 24 26 29 28 27 26 26 25 24 23 22 22 22 22 22 22 21 18 16 15 15 15 14 13 14 13 13 13 11 9 9 9 9 9 9 9 8 8 10 11 11 12 12 12 10 8 10 11 11 12 14 14 15 17 19 20 20 21 22 22 21 21 22 21 19 19 21 19 14 14
33 33 32 30 29 29 30 30 29 28 27 26 26 25 24 24 24 23 23 23 23 23 22 21 20 19 17 18 19 18 17 16 14 12 11 10 10 10 10 11 12 13 14 12 11 11 11 11 10 6 8 10 10 11 13 12 13 15 17 18 19 20 20 20 20 21 22 22 19 18 19 18 14 12
35 35 34 32 32 31 32 32 31 28 26 25 24 23 24 24 24 24 24 23 22 22 24 24 24 23 21 21 20 18 17 17 17 16 15 13 12 11 11 12 13 14 13 10 9 10 10 10 9 6 6 8 8 9 13 12 10 14 16 17 18 18 19 19 19 20 22 22 21 17 17 17 13 10
38 37 35 34 33 33 34 33 32 30 27 24 21 21 21 21 21 22 24 24 23 21 21 22 23 22 21 20 19 17 16 16 16 15 14 13 11 10 10 11 11 10 9 8 9 10 10 9 8 6 5 7 6 6 10 11 9 11 14 14 16 16 17 17 18 19 21 22 22 19 15 15 13 10
39 38 38 36 35 34 35 34 33 31 29 26 23 21 20 20 20 20 21 22 23 23 22 21 21 21 20 19 19 18 17 17 16 14 12 11 10 10 10 11 10 9 8 8 9 10 10 9 8 5 4 8 7 4 6 9 9 10 11 12 14 15 15 16 17 18 19 20 22 21 17 13 11 9
40 39 39 37 36 36 36 34 33 32 30 29 27 23 21 20 20 21 20 19 20 21 22 22 21 21 21 19 19 18 16 16 17 17 16 13 11 11 12 11 11 11 10 10 10 11 10 9 8 5 4 7 6 5 6 7 7 8 9 10 12 13 14 15 16 17 19 19 21 21 19 16 13 10
37 40 40 39 38 39 37 35 34 33 31 31 30 25 21 21 22 22 20 18 17 17 19 21 22 21 20 19 18 18 16 16 17 18 18 16 13 12 13 12 11 10 9 8 9 10 9 8 8 6 5 4 3 4 6 5 4 6 7 9 11 12 13 15 16 17 18 19 20 20 19 18 16 13
30 34 39 40 40 39 39 36 35 35 34 33 32 28 23 22 24 23 21 20 20 18 17 18 20 20 20 19 18 18 18 18 18 18 18 17 15 14 14 13 13 11 10 8 9 9 8 7 8 8 7 5 2 3 4 4 3 5 5 6 10 12 13 14 16 17 18 19 19 18 19 19 18 16
27 29 35 40 41 40 39 37 36 36 36 35 34 32 29 29 29 27 24 22 21 19 17 17 17 17 17 17 17 17 17 17 18 18 18 18 17 17 16 15 14 14 13 12 12 11 9 7 7 8 8 7 4 2 3 4 3 3 3 4 8 11 13 13 14 15 18 19 18 18 18 17 17 17
30 30 34 40 41 39 38 36 35 35 35 36 36 36 35 34 32 30 30 26 21 17 16 16 15 15 15 15 15 16 16 16 16 17 18 18 19 19 18 18 17 16 15 15 14 13 11 10 9 8 8 7 5 3 3 4 4 2 1 3 6 10 12 12 12 13 15 16 17 18 19 18 16 16
32 32 36 40 40 38 37 37 35 34 34 35 37 36 35 34 32 31 32 31 25 19 18 17 17 17 16 16 16 16 16 15 14 15 16 18 19 21 21 21 20 19 18 17 16 15 12 12 13 11 9 7 6 4 4 4 5 2 1 2 4 8 10 11 11 12 13 14 16 17 18 17 17 17
30 31 35 39 39 38 38 37 35 34 33 34 35 34 33 32 32 32 33 32 26 21 19 19 19 19 18 18 18 18 19 18 17 17 18 19 21 22 23 24 23 21 19 19 19 18 15 14 16 15 12 10 8 6 5 5 5 5 4 4 1 4 7 9 10 11 12 13 15 17 16 15 17 17
32 32 35 37 38 38 37 36 35 35 35 34 33 33 31 31 33 34 34 31 25 21 20 19 20 20 19 20 22 23 23 22 20 18 17 18 21 24 24 23 21 18 17 18 20 20 18 16 18 17 14 13 11 8 7 6 6 6 6 5 4 1 4 7 7 9 11 12 14 16 16 16 17 18
39 37 37 37 37 38 38 37 37 36 36 34 33 32 31 32 34 34 34 30 25 21 21 20 20 21 20 21 22 22 20 18 16 15 15 16 19 22 20 18 15 14 16 19 20 20 19 18 19 17 15 14 13 10 9 8 7 7 6 5 5 4 1 4 5 7 8 9 10 13 15 16 17 18
43 41 40 39 39 38 38 38 38 37 35 34 33 33 33 34 34 34 34 32 29 25 23 21 21 20 19 19 18 16 16 16 14 14 16 16 17 18 16 15 15 16 19 21 20 20 20 20 20 19 17 16 15 13 11 10 8 7 7 6 5 5 3 1 3 5 6 6 6 9 12 13 14 16
43 43 41 38 38 39 37 35 34 33 32 33 34 34 33 34 35 35 34 32 28 24 22 21 21 20 18 18 18 17 17 17 16 16 17 17 18 18 16 16 16 17 18 20 20 20 21 21 21 20 18 16 15 14 14 12 10 8 8 8 6 5 4 2 1 2 5 6 3 5 8 10 11 13
41 42 38 32 30 32 31 28 26 25 26 27 30 32 33 33 33 33 33 32 29 25 23 23 22 21 20 19 18 18 18 19 18 18 18 17 18 17 16 17 19 20 20 21 22 23 23 23 23 21 18 15 14 15 15 13 11 11 10 9 8 6 5 3 2 1 4 5 2 3 5 8 10 12
35 35 32 28 26 26 25 25 24 22 22 23 24 27 30 31 31 29 29 30 29 28 29 29 25 21 21 20 19 19 20 19 20 20 19 18 19 19 17 17 20 22 22 22 24 25 24 23 22 19 16 15 15 17 17 14 11 11 11 10 8 7 6 5 3 2 3 4 3 2 3 3 6 10
33 29 26 26 27 25 23 24 23 22 21 22 22 22 24 27 29 28 27 28 29 30 32 31 27 22 22 21 21 22 22 20 21 22 19 18 20 19 16 17 19 22 23 24 26 26 25 24 21 17 14 13 13 15 18 18 13 10 10 10 10 8 7 7 6 3 3 4 4 4 2 2 2 6
32 28 25 24 24 23 23 23 22 22 22 22 22 21 21 23 26 30 32 33 34 33 31 28 25 23 24 23 22 23 23 22 23 22 19 18 19 18 17 18 19 20 23 25 27 28 27 26 24 18 13 12 10 9 14 19 19 15 11 10 11 11 10 9 7 6 5 4 4 4 4 2 1 3
27 24 23 24 23 22 22 21 21 22 23 23 21 21 23 24 26 33 38 37 35 34 30 26 23 22 23 24 22 22 24 24 23 22 19 18 19 18 18 19 19 22 26 28 28 29 30 29 27 21 14 11 9 6 9 15 20 22 18 13 11 12 13 11 9 7 7 7 6 6 5 4 3 4
25 21 22 23 22 21 21 21 21 21 22 23 23 23 26 27 28 32 35 33 30 28 25 23 23 23 22 23 22 23 25 25 23 22 20 19 19 19 19 21 22 24 26 26 24 27 32 31 27 23 19 14 9 7 9 12 15 20 22 19 14 12 13 12 9 7 7 8 9 9 8 7 6 7
27 23 22 23 23 24 23 23 24 24 23 23 24 26 27 27 28 29 28 25 24 23 21 21 23 23 22 23 23 23 25 25 23 21 22 23 23 22 21 21 21 19 19 19 20 25 30 31 27 25 24 19 13 10 11 10 10 13 17 19 17 14 14 13 10 7 7 7 8 9 10 9 9 9
33 29 26 24 24 26 28 27 27 28 27 25 27 28 28 26 25 25 24 23 22 22 22 22 23 23 22 23 24 23 23 23 22 22 25 28 27 23 20 21 22 19 18 19 20 22 29 35 35 32 28 23 18 14 13 9 7 8 11 14 16 15 14 13 11 8 8 9 9 9 8 8 8 9
38 35 34 31 26 25 27 29 29 28 27 27 30 32 32 30 27 24 24 24 22 22 23 24 24 24 23 23 23 23 23 22 20 20 24 28 28 26 24 24 24 22 19 20 22 24 30 38 38 33 29 25 20 16 13 9 6 7 9 11 14 15 14 13 12 11 11 12 12 10 8 8 9 9
41 41 40 37 31 27 26 28 29 27 25 27 32 35 35 34 32 30 28 26 24 24 26 26 25 24 23 23 22 22 21 21 20 19 22 24 24 24 26 27 26 23 21 21 23 25 28 31 31 29 27 24 19 14 11 8 7 8 9 10 13 16 16 14 13 14 14 15 14 11 9 8 8 7
41 42 39 37 36 35 32 32 33 32 27 27 31 35 35 31 28 27 26 25 25 28 30 26 23 23 23 22 21 21 20 20 19 19 20 22 22 21 23 26 27 24 22 21 21 22 23 26 28 29 27 21 17 14 12 10 9 11 12 11 11 13 15 15 14 15 16 17 17 16 14 12 10 9
36 36 35 35 37 39 39 38 39 38 35 32 33 33 31 27 23 23 24 24 27 30 30 26 24 23 22 20 20 21 21 20 19 19 21 25 26 26 26 26 24 21 20 20 20 20 21 24 27 27 24 20 19 19 15 12 12 14 14 13 11 11 12 13 15 16 18 20 20 19 18 18 18 17
31 30 31 33 37 38 39 40 40 37 37 36 34 30 26 24 23 23 23 24 27 28 25 23 22 22 20 19 19 19 19 19 20 21 23 25 28 29 28 24 18 16 18 19 19 17 17 18 20 20 17 16 18 18 15 14 15 14 13 11 10 10 9 10 12 13 14 16 18 17 17 17 17 18
Wind_Direction
251 256 259 268 267 257 265 270 285 315 335 347 346 344 342 328 329 335 341 349 349 349 355 352 345 353 2 7 8 10 9 5 7 10 8 3 359 0 10 14 10 5 359 357 357 353 347 342 340 340 341 342 346 349 352 352 351 347 343 342 342 342 341 340 338 333 327 324 324 325 328 330 333 336
254 255 257 265 271 266 270 270 272 290 309 329 332 328 321 301 296 307 314 319 308 308 328 330 329 342 353 359 358 0 4 6 9 9 8 4 1 12 23 15 9 7 5 3 359 353 347 342 341 343 347 350 353 354 353 351 348 345 344 344 344 342 342 341 337 330 325 322 322 323 325 327 331 335
263 263 261 265 271 274 279 278 274 279 286 296 304 305 301 290 277 278 283 294 294 294 310 319 321 329 340 349 352 354 359 5 10 11 8 4 3 19 19 12 11 12 7 3 357 352 347 343 344 350 355 357 357 356 353 351 348 346 345 344 343 343 343 342 336 330 328 325 323 324 325 326 329 334
263 267 266 265 268 273 280 282 279 277 276 277 281 279 278 278 275 269 263 278 290 289 295 307 311 319 331 341 350 354 355 0 7 11 9 6 8 15 14 10 5 2 5 3 358 355 350 348 352 357 360 0 360 357 353 349 347 346 345 344 344 346 345 342 338 334 332 328 325 326 327 327 328 333
258 263 265 265 269 274 275 275 274 273 272 268 267 266 265 265 266 264 258 273 291 294 293 302 307 318 328 333 345 351 351 356 5 12 11 8 10 12 14 9 349 353 7 7 2 1 358 359 1 359 2 3 359 355 349 346 345 345 345 346 348 349 347 344 343 340 337 333 331 331 331 330 330 334
257 262 265 265 268 274 275 274 270 266 264 261 260 259 258 259 259 264 266 268 286 294 295 301 304 313 325 327 336 345 348 356 6 14 14 10 14 18 21 17 345 348 8 11 8 8 7 6 3 1 2 1 355 349 344 343 345 345 346 350 352 352 351 350 348 346 344 340 337 335 334 334 334 337
258 262 265 265 263 268 272 273 269 263 260 260 262 260 259 262 260 264 270 267 275 289 295 300 302 306 315 320 329 339 346 354 3 13 18 15 20 25 25 24 351 344 6 15 14 12 9 4 0 358 358 355 349 345 342 343 345 347 350 353 354 353 355 355 352 351 350 346 341 337 335 337 338 341
259 261 264 264 262 265 269 269 265 263 263 262 263 263 262 264 262 260 268 269 269 280 289 294 297 303 309 314 324 334 341 347 353 10 22 22 23 27 24 16 344 336 355 12 16 12 4 356 354 352 350 349 346 343 343 345 346 348 352 355 355 355 358 359 356 354 353 349 345 341 338 338 340 343
260 262 263 264 264 265 266 266 262 260 264 264 263 262 261 262 263 263 268 271 269 271 280 288 293 300 305 310 319 327 334 337 339 1 20 23 21 21 21 11 336 333 347 1 10 8 356 347 344 342 342 343 344 342 342 345 346 349 354 356 357 358 359 359 357 356 355 353 349 344 340 339 340 344
262 263 265 266 266 264 263 262 260 260 264 264 262 262 263 261 264 267 268 269 269 267 272 281 288 292 297 302 310 317 325 329 327 338 3 15 17 13 10 6 332 324 333 342 354 357 346 338 335 334 336 339 340 340 341 344 346 350 354 357 358 359 359 359 357 355 357 357 352 346 343 342 341 344
262 263 265 265 264 265 265 263 261 262 263 262 262 263 264 263 263 266 265 264 266 266 269 275 280 285 289 292 298 307 319 325 322 323 334 347 5 7 1 351 311 291 309 318 329 334 328 327 327 326 329 334 337 338 339 342 346 351 354 357 359 0 0 359 357 355 358 0 355 349 346 345 344 344
262 263 264 263 262 264 266 266 265 263 261 261 263 263 263 262 261 260 261 261 262 263 267 271 275 279 283 285 290 299 311 315 306 309 320 315 322 346 351 340 304 283 305 309 316 323 318 316 321 322 324 331 336 337 338 342 347 351 355 356 357 1 1 360 357 356 359 3 359 353 349 348 348 348
262 263 263 262 262 263 266 268 268 267 264 262 261 260 261 262 259 255 254 255 257 258 262 267 270 274 275 275 279 283 288 294 297 305 310 301 303 322 330 321 296 287 308 308 304 307 303 295 303 311 317 325 334 336 336 341 347 350 354 355 357 360 1 1 358 356 358 3 2 357 353 352 352 355
261 262 263 263 264 267 269 270 268 267 266 264 261 259 258 258 256 251 248 249 250 252 257 261 264 267 269 269 272 278 283 288 293 298 295 288 296 311 314 306 289 277 300 313 302 294 294 288 289 297 306 318 330 334 333 338 345 350 353 354 356 359 1 2 359 356 358 2 4 1 358 357 357 1
260 260 262 263 264 267 270 270 269 268 266 263 263 261 258 256 254 248 245 246 247 248 253 257 259 261 264 266 268 276 283 285 284 285 283 279 284 295 302 302 293 281 295 312 303 290 290 291 284 286 297 310 323 328 329 334 343 350 353 353 356 359 2 3 360 357 359 3 4 2 2 3 4 6
258 258 259 258 258 263 267 268 267 268 268 264 263 263 261 260 257 253 249 248 247 247 251 255 255 256 262 265 265 269 279 284 284 282 274 268 271 276 282 288 290 288 296 307 303 290 289 292 286 282 292 305 316 321 326 335 343 349 352 353 356 0 3 4 1 358 2 6 5 2 4 9 11 11
256 257 258 257 256 260 265 265 263 263 266 266 265 264 263 261 259 257 254 253 251 251 252 256 257 255 257 262 265 272 281 283 280 277 272 268 266 266 270 278 280 283 291 298 297 291 287 285 281 277 286 300 311 317 324 334 342 348 351 353 358 3 5 5 4 2 5 8 8 3 4 13 18 16
255 257 258 257 258 261 263 265 264 262 261 264 265 264 263 262 262 260 258 256 255 253 252 253 257 259 259 265 272 279 282 281 277 272 271 272 270 266 271 279 280 282 288 291 288 289 285 277 274 265 277 297 308 312 318 327 338 346 350 354 360 6 8 8 7 8 8 10 12 6 5 13 22 22
255 257 257 257 258 260 261 263 263 261 258 258 258 258 260 261 262 262 261 259 258 256 255 254 256 261 264 269 276 279 277 278 280 279 276 273 274 274 275 280 281 282 286 281 271 280 283 275 273 264 270 294 303 304 308 317 333 344 348 355 3 9 12 12 13 13 13 13 15 11 7 12 20 25
255 256 256 256 257 259 261 263 263 261 257 253 250 250 253 255 256 258 261 264 263 260 260 260 260 261 264 268 273 275 272 273 277 281 279 272 267 269 269 273 276 276 276 264 256 270 276 270 271 266 266 286 287 284 299 306 321 341 349 357 6 12 17 19 20 20 18 17 18 17 13 11 15 26
254 255 255 255 255 257 260 262 263 263 259 252 247 247 249 250 251 254 259 265 267 264 262 263 264 265 266 267 269 270 270 270 269 267 267 262 259 260 261 266 273 274 274 264 254 263 270 266 266 259 259 284 281 241 260 286 306 335 350 2 9 16 23 26 28 26 24 23 21 21 22 18 18 30
251 254 255 255 254 255 258 260 261 261 258 252 248 245 246 249 250 253 254 257 263 265 265 266 265 266 266 265 266 266 266 270 268 261 259 261 260 258 259 267 275 277 276 265 247 251 263 264 261 254 256 280 273 214 218 259 295 329 352 10 16 22 30 34 36 34 31 30 27 25 27 29 29 34
248 252 255 255 253 254 256 257 258 258 255 251 248 244 243 246 248 252 253 252 252 255 260 266 268 269 269 268 268 268 266 267 266 259 259 261 256 254 259 267 273 276 275 262 242 242 254 258 257 255 258 271 251 195 203 233 283 325 353 18 24 29 38 41 43 42 39 38 34 29 31 33 36 42
243 247 252 254 254 254 254 254 255 255 253 251 249 244 239 242 247 252 254 255 255 250 250 259 265 268 270 269 267 267 267 266 263 258 257 254 248 248 256 262 266 268 269 263 247 243 250 258 260 256 254 264 256 176 184 201 261 319 351 23 25 34 44 44 43 44 44 44 40 36 36 35 37 46
239 242 247 252 253 253 253 253 253 253 253 252 250 245 243 246 253 258 258 258 260 257 251 253 258 259 261 261 257 256 257 258 258 259 259 255 248 246 251 259 264 268 268 261 251 246 246 250 253 245 239 245 245 203 182 184 219 309 351 33 28 36 48 47 42 42 44 45 44 44 45 41 37 42
237 239 244 249 252 253 253 255 254 254 254 253 250 249 250 254 257 261 261 261 261 258 255 255 256 254 252 251 250 247 245 244 245 250 256 259 255 250 250 255 261 266 269 265 256 253 251 247 242 230 222 232 237 226 209 191 199 269 353 58 39 38 45 45 42 42 42 44 45 47 49 48 46 48
236 239 243 249 252 253 254 256 256 255 254 253 252 252 253 256 258 260 261 261 258 256 258 258 258 258 255 253 251 247 247 245 239 241 253 263 264 259 257 259 260 261 265 265 262 259 255 250 248 236 218 220 231 231 225 200 187 198 187 118 48 37 40 41 39 40 41 40 40 44 44 42 47 53
236 238 243 249 253 255 256 256 257 257 256 255 254 255 255 256 257 256 256 256 255 255 256 255 257 258 256 252 251 251 254 256 254 255 261 263 262 260 259 260 260 258 257 257 258 259 257 250 248 241 225 219 227 231 227 199 176 177 179 173 149 32 35 38 37 36 36 36 37 40 40 37 40 47
239 240 245 250 255 256 258 258 257 256 256 256 256 256 256 255 253 252 251 252 251 251 252 252 253 253 250 251 259 266 268 266 263 262 261 258 259 260 258 256 255 253 250 249 251 256 257 249 241 236 227 222 222 218 210 194 176 175 174 174 187 204 31 37 36 32 31 34 35 37 40 40 41 45
243 244 246 250 254 256 257 256 255 254 256 257 257 255 253 251 249 248 247 246 244 243 246 247 247 248 248 254 263 270 270 264 259 256 253 252 255 256 250 245 244 242 243 245 248 252 253 245 234 226 221 221 219 210 200 190 179 174 172 172 183 191 135 39 39 34 30 29 28 31 37 38 39 45
243 244 246 248 251 254 255 255 254 254 255 254 254 252 250 247 247 246 245 245 244 242 243 245 246 248 252 255 258 260 258 256 253 248 247 248 249 247 241 236 234 234 239 243 244 245 244 236 226 219 216 217 216 209 199 189 181 178 178 177 180 182 177 89 47 35 30 31 21 19 29 34 34 39
241 243 245 246 247 249 250 250 249 248 248 248 249 250 249 247 248 248 246 244 243 241 241 245 248 250 253 254 253 252 252 254 251 245 242 244 245 241 235 232 229 228 232 237 238 237 233 226 217 213 213 214 214 211 204 194 188 186 183 184 187 179 170 166 150 22 27 38 22 353 16 28 29 32
239 240 239 240 241 241 241 242 240 237 237 239 242 244 245 245 245 244 242 240 239 237 236 238 241 244 246 247 247 249 252 254 251 243 237 238 239 233 227 227 227 225 226 230 231 228 221 213 208 208 210 213 217 214 204 195 195 197 189 188 192 187 179 185 201 307 10 32 28 304 348 17 24 28
234 235 234 233 234 235 234 234 234 230 227 228 231 235 238 239 239 238 237 237 237 237 238 239 237 236 239 242 246 252 254 252 247 241 235 232 232 228 220 220 225 226 226 227 227 222 212 205 204 205 205 210 216 215 208 199 197 199 196 196 197 191 191 206 223 282 338 7 13 309 283 331 4 15
226 228 230 231 232 232 231 232 232 231 228 227 227 228 230 234 235 233 232 235 237 237 239 240 237 234 238 244 248 251 251 246 241 239 233 226 226 225 218 215 220 224 224 225 224 217 207 201 200 195 192 200 211 217 215 210 202 197 200 207 210 204 202 212 225 253 297 327 343 336 285 236 323 355
225 225 227 230 231 230 229 231 232 231 231 231 230 228 227 229 232 234 237 240 240 239 238 237 235 236 239 241 242 243 242 238 234 231 224 219 221 222 218 217 220 222 223 225 222 213 205 201 198 190 185 192 202 215 218 214 210 207 204 207 214 214 212 218 229 244 262 283 303 313 314 299 271 327
224 223 226 230 232 230 229 231 231 230 233 234 232 230 230 231 235 241 246 246 242 240 239 237 236 237 236 234 234 235 234 231 228 225 222 221 222 221 218 219 221 221 223 225 221 212 205 201 198 195 195 198 203 209 204 203 209 212 211 209 212 215 219 225 234 238 246 262 271 277 290 300 297 312
223 223 226 229 231 231 231 231 231 230 232 233 232 233 237 238 240 244 248 245 240 238 237 234 233 233 231 228 228 230 230 228 226 226 224 220 220 218 217 220 223 223 222 222 217 209 206 202 198 200 206 208 211 209 193 189 200 211 213 213 214 218 223 227 229 228 233 249 263 271 277 283 289 305
224 225 226 227 228 230 230 231 232 234 234 235 236 238 241 242 242 243 243 240 235 233 231 230 230 231 229 227 226 227 228 226 222 222 222 221 220 219 217 220 224 223 219 216 210 205 204 203 202 204 208 209 209 205 197 189 188 197 208 213 215 220 226 228 228 231 234 240 256 270 277 281 283 293
226 225 227 227 227 230 233 233 235 238 239 238 240 242 242 240 240 240 239 236 234 232 231 231 231 229 228 227 226 225 225 222 219 219 222 223 223 220 217 220 223 219 214 214 209 201 201 207 211 212 210 209 209 204 199 195 187 190 206 215 215 218 227 233 234 235 239 247 256 263 267 267 271 284
227 228 230 231 229 231 234 236 237 239 238 239 242 246 247 244 242 241 241 238 235 232 232 233 232 229 228 227 224 222 222 221 219 220 222 224 224 222 219 219 220 217 214 215 213 207 209 217 221 218 212 211 212 208 206 207 203 205 218 225 225 228 234 242 246 243 243 250 256 257 257 260 264 272
232 232 233 233 232 232 233 236 238 237 235 237 242 246 248 247 246 246 245 243 239 235 235 235 232 228 226 225 223 222 223 223 222 221 220 221 223 223 220 218 217 216 215 216 217 217 219 223 223 215 210 211 211 209 214 215 204 210 223 228 233 239 243 247 252 253 250 251 252 250 253 261 267 268
234 233 233 233 234 235 235 236 238 237 235 238 242 245 246 245 243 241 241 242 243 241 238 235 230 226 224 222 221 220 222 224 224 221 218 218 220 221 220 218 218 218 216 213 213 216 218 218 214 209 207 205 202 206 219 221 211 219 229 227 229 241 248 251 256 256 254 253 253 253 254 258 263 267
233 232 232 233 235 236 237 237 239 239 239 241 245 247 246 243 240 239 240 244 247 245 240 233 230 228 225 220 219 221 222 224 223 221 220 221 222 223 224 222 219 214 206 198 193 194 200 206 208 207 204 199 198 204 214 217 216 224 231 227 224 234 246 254 259 258 257 257 257 257 258 259 261 263
231 230 230 233 236 239 240 240 239 238 239 241 244 246 244 241 242 243 242 242 245 244 238 230 228 227 224 221 221 220 221 223 226 226 225 225 225 227 228 224 211 197 193 188 180 175 183 196 205 205 200 198 201 205 210 215 220 225 227 223 223 227 231 241 251 255 256 259 260 259 258 258 259 260